Weather History for KILM - December, 2011

Change the Weather History Date:

Monday, December 5, 2011

  Actual Average Record
Temperature  
Mean Temperature 60 °F 51 °F  
Max Temperature 72 °F 62 °F 80 °F (1998)
Min Temperature 48 °F 40 °F 23 °F (1969)
Degree Days  
Heating Degree Days 5 14  
Month to date heating degree days 67 68  
Since 1 July heating degree days 394 437  
Cooling Degree Days 0 0  
Month to date cooling degree days 0 0  
Year to date cooling degree days 2336 2037  
Growing Degree Days 8 (Base 50)    
Moisture  
Dew Point 56 °F    
Average Humidity 83    
Maximum Humidity 100    
Minimum Humidity 66    
Precipitation  
Precipitation 0.01 in 0.12 in 1.90 in (1923)
Month to date precipitation 0.01 0.59  
Year to date precipitation 43.38 54.58  
Snow  
Snow 0.00 in 0.00 in 0.10 in (1907)
Month to date snowfall 0.0 0.0  
Since 1 July snowfall 0.0 0.0  
Snow Depth 0.00 in    
Sea Level Pressure  
Sea Level Pressure 30.25 in    
Wind  
Wind Speed 4 mph (East)    
Max Wind Speed 13 mph    
Max Gust Speed 17 mph    
Visibility 7 miles    
Events Rain    
T = Trace of Precipitation, MM = Missing Value Source: NWS Daily Summary

Daily Weather History Graph

Daily Weather History Graph

Search for Another Location

Airport or City:

Trip Planner

Search our weather history database for the weather conditions in past years. The results will help you decide how hot, cold, wet, or windy it might be!

Date:

Astronomy

Dec. 05, 2011 Rise Set
Actual Time 7:02 AM EST 5:01 PM EST
Civil Twilight 6:35 AM EST 5:29 PM EST
Nautical Twilight 6:03 AM EST 6:00 PM EST
Astronomical Twilight 5:33 AM EST 6:30 PM EST
Moon 1:50 PM EST (12/5) 2:31 AM EST (12/5)
Length of Visible Light 10h 54m
Length of Day
9h 58m
Waxing Gibbous, 79% of the Moon is Illuminated
Dec 5
Waxing Gibbous
Dec 10
Full
Dec 17
Last Quarter
Dec 24
New
Jan 1
First Quarter

Hourly Weather History & Observations

Time (EST) Temp. Dew Point Humidity Pressure Visibility Wind Dir Wind Speed Gust Speed Precip Events Conditions
12:53 AM 57.0 °F 52.0 °F 83% 30.32 in 10.0 mi ENE 8.1 mph - N/A   Scattered Clouds
1:53 AM 57.0 °F 52.0 °F 83% 30.32 in 10.0 mi North 3.5 mph - N/A   Overcast
2:53 AM 53.1 °F 50.0 °F 89% 30.30 in 10.0 mi Calm Calm - N/A   Partly Cloudy
3:53 AM 51.1 °F 50.0 °F 96% 30.29 in 7.0 mi Calm Calm - N/A   Partly Cloudy
4:21 AM 50.0 °F 48.2 °F 94% 30.28 in 1.8 mi Calm Calm - N/A   Partly Cloudy
4:29 AM 48.2 °F 46.4 °F 93% 30.28 in 4.0 mi Calm Calm - N/A   Partly Cloudy
4:53 AM 50.0 °F 48.9 °F 96% 30.28 in 6.0 mi Calm Calm - N/A   Partly Cloudy
5:53 AM 48.9 °F 48.0 °F 97% 30.28 in 10.0 mi Calm Calm - N/A   Mostly Cloudy
6:53 AM 57.9 °F 55.9 °F 93% 30.29 in 10.0 mi NE 5.8 mph - N/A   Overcast
7:53 AM 59.0 °F 55.9 °F 90% 30.30 in 10.0 mi Calm Calm - N/A   Mostly Cloudy
8:53 AM 64.9 °F 59.0 °F 81% 30.30 in 10.0 mi East 8.1 mph 17.3 mph N/A   Clear
9:53 AM 66.0 °F 59.0 °F 78% 30.30 in 10.0 mi ESE 5.8 mph - N/A   Mostly Cloudy
10:53 AM 64.9 °F 60.1 °F 84% 30.31 in 8.0 mi East 10.4 mph - N/A   Overcast
11:53 AM 64.9 °F 62.1 °F 90% 30.28 in 10.0 mi East 6.9 mph - 0.00 in   Overcast
12:53 PM 69.1 °F 60.1 °F 73% 30.25 in 10.0 mi East 4.6 mph - N/A   Scattered Clouds
1:53 PM 69.1 °F 57.9 °F 68% 30.22 in 10.0 mi East 10.4 mph - N/A   Overcast
2:53 PM 68.0 °F 57.9 °F 70% 30.22 in 10.0 mi East 3.5 mph - N/A   Overcast
3:53 PM 68.0 °F 59.0 °F 73% 30.21 in 10.0 mi ENE 4.6 mph - N/A   Mostly Cloudy
4:53 PM 66.2 °F 59.0 °F 78% 30.22 in 10.0 mi Calm Calm - N/A   Overcast
5:53 PM 64.9 °F 60.1 °F 84% 30.21 in 10.0 mi East 4.6 mph - N/A   Overcast
6:53 PM 63.0 °F 61.0 °F 93% 30.22 in 10.0 mi Calm Calm - 0.00 in   Overcast
7:53 PM 63.0 °F 61.0 °F 93% 30.23 in 10.0 mi South 3.5 mph - N/A   Overcast
8:16 PM 62.6 °F 60.8 °F 94% 30.23 in 8.0 mi SW 4.6 mph - 0.01 in Rain Light Rain
8:53 PM 63.0 °F 61.0 °F 93% 30.22 in 10.0 mi East 3.5 mph - 0.01 in   Overcast
9:53 PM 62.1 °F 60.1 °F 93% 30.22 in 10.0 mi ESE 4.6 mph - N/A   Mostly Cloudy
10:41 PM 59.0 °F 57.2 °F 94% 30.20 in 1.8 mi Calm Calm - N/A   Clear
10:53 PM 59.0 °F 57.9 °F 96% 30.21 in 0.8 mi Calm Calm - N/A   Partly Cloudy
11:00 PM 57.2 °F 57.2 °F 100% 30.20 in 1.5 mi Calm Calm - N/A   Clear
11:03 PM 59.0 °F 57.2 °F 94% 30.20 in 3.0 mi Calm Calm - N/A   Clear
11:21 PM 57.2 °F 57.2 °F 100% 30.20 in 1.5 mi East 3.5 mph - N/A   Scattered Clouds
11:28 PM 59.0 °F 57.2 °F 94% 30.21 in 1.0 mi East 3.5 mph - N/A   Mostly Cloudy
11:32 PM 59.0 °F 57.2 °F 94% 30.21 in 3.0 mi East 5.8 mph - N/A   Mostly Cloudy
11:53 PM 57.0 °F 55.9 °F 96% 30.20 in 8.0 mi East 3.5 mph - N/A   Partly Cloudy